24-12-2022, 00:00:03,    223,    0.0,    7.0,   0.00,   0.00, 1003.3,   87.3, -999.0
24-12-2022, 00:00:12,    205,    0.4,    7.0,   0.00,   0.00, 1003.3,   87.4, -999.0
24-12-2022, 00:00:22,    206,    0.9,    6.9,   0.00,   0.00, 1003.4,   87.6, -999.0
24-12-2022, 00:00:32,    206,    0.5,    7.1,   0.00,   0.00, 1003.4,   87.7, -999.0
24-12-2022, 00:00:43,    206,    0.0,    6.9,   0.00,   0.00, 1003.3,   87.5, -999.0
24-12-2022, 00:00:52,    206,    0.0,    6.9,   0.00,   0.00, 1003.3,   87.4, -999.0
24-12-2022, 00:01:02,    207,    0.0,    7.0,   0.00,   0.00, 1003.3,   87.5, -999.0
24-12-2022, 00:01:12,    207,    0.0,    6.9,   0.00,   0.00, 1003.3,   87.2, -999.0
24-12-2022, 00:01:22,    207,    0.0,    7.0,   0.00,   0.00, 1003.3,   87.1, -999.0
24-12-2022, 00:01:32,    254,    0.5,    7.0,   0.00,   0.00, 1003.4,   87.5, -999.0
24-12-2022, 00:01:42,    234,    0.9,    7.1,   0.00,   0.00, 1003.4,   87.7, -999.0
24-12-2022, 00:01:52,    204,    0.5,    7.0,   0.00,   0.00, 1003.4,   87.6, -999.0
24-12-2022, 00:02:02,    245,    0.9,    7.0,   0.00,   0.00, 1003.4,   87.7, -999.0
24-12-2022, 00:02:12,    245,    0.2,    7.0,   0.00,   0.00, 1003.4,   87.7, -999.0
24-12-2022, 00:02:22,    238,    0.2,    7.0,   0.00,   0.00, 1003.4,   87.6, -999.0
24-12-2022, 00:02:32,    239,    0.0,    7.0,   0.00,   0.00, 1003.3,   87.4, -999.0
24-12-2022, 00:02:42,    242,    0.0,    7.0,   0.00,   0.00, 1003.3,   87.4, -999.0
24-12-2022, 00:02:52,    243,    0.2,    7.0,   0.00,   0.00, 1003.4,   87.4, -999.0
24-12-2022, 00:03:02,    242,    0.1,    7.0,   0.00,   0.00, 1003.4,   87.3, -999.0
24-12-2022, 00:03:12,    241,    0.0,    7.0,   0.00,   0.00, 1003.3,   87.3, -999.0
24-12-2022, 00:03:22,    184,    0.0,    7.0,   0.00,   0.00, 1003.3,   87.4, -999.0
24-12-2022, 00:03:32,    201,    1.6,    7.0,   0.00,   0.00, 1003.5,   87.7, -999.0
24-12-2022, 00:03:42,    205,    0.8,    7.1,   0.00,   0.00, 1003.5,   87.7, -999.0
24-12-2022, 00:03:52,    223,    1.4,    7.0,   0.00,   0.00, 1003.5,   87.4, -999.0
24-12-2022, 00:04:02,    234,    1.1,    7.1,   0.00,   0.00, 1003.5,   87.5, -999.0
24-12-2022, 00:04:12,    253,    1.2,    7.1,   0.00,   0.00, 1003.5,   87.4, -999.0
24-12-2022, 00:04:22,    250,    0.0,    7.0,   0.00,   0.00, 1003.4,   87.1, -999.0
24-12-2022, 00:04:32,    213,    0.2,    7.0,   0.00,   0.00, 1003.4,   87.1, -999.0
24-12-2022, 00:04:42,    219,    1.2,    7.0,   0.00,   0.00, 1003.5,   87.3, -999.0
24-12-2022, 00:04:52,    228,    1.3,    7.0,   0.00,   0.00, 1003.5,   87.3, -999.0
24-12-2022, 00:05:02,    261,    1.9,    7.1,   0.00,   0.00, 1003.5,   87.2, -999.0
24-12-2022, 00:05:12,    261,    0.7,    7.1,   0.00,   0.00, 1003.5,   87.2, -999.0
24-12-2022, 00:05:22,    235,    0.4,    7.1,   0.00,   0.00, 1003.5,   87.1, -999.0
24-12-2022, 00:05:32,    218,    0.9,    7.1,   0.00,   0.00, 1003.5,   87.1, -999.0
24-12-2022, 00:05:42,    207,    0.1,    7.1,   0.00,   0.00, 1003.5,   87.0, -999.0
24-12-2022, 00:05:52,    207,    0.0,    7.1,   0.00,   0.00, 1003.4,   86.9, -999.0
24-12-2022, 00:06:02,    196,    0.8,    7.1,   0.00,   0.00, 1003.5,   87.0, -999.0
24-12-2022, 00:06:12,    200,    0.9,    7.2,   0.00,   0.00, 1003.5,   87.0, -999.0
24-12-2022, 00:06:22,    194,    1.2,    7.1,   0.00,   0.00, 1003.5,   86.8, -999.0
24-12-2022, 00:06:32,    249,    2.7,    7.1,   0.00,   0.00, 1003.5,   86.7, -999.0
24-12-2022, 00:06:42,    249,    0.3,    7.2,   0.00,   0.00, 1003.5,   86.3, -999.0
24-12-2022, 00:06:52,    243,    0.6,    7.1,   0.00,   0.00, 1003.5,   86.2, -999.0
24-12-2022, 00:07:02,    234,    0.5,    7.2,   0.00,   0.00, 1003.5,   86.1, -999.0
24-12-2022, 00:07:12,    200,    0.3,    7.1,   0.00,   0.00, 1003.5,   86.0, -999.0
24-12-2022, 00:07:21,    172,    1.8,    7.2,   0.00,   0.00, 1003.5,   86.1, -999.0
24-12-2022, 00:07:32,    220,    0.8,    7.1,   0.00,   0.00, 1003.5,   86.0, -999.0
24-12-2022, 00:07:42,    228,    0.2,    7.1,   0.00,   0.00, 1003.5,   85.9, -999.0
24-12-2022, 00:07:51,    229,    0.0,    7.1,   0.00,   0.00, 1003.4,   85.7, -999.0
24-12-2022, 00:08:01,    191,    1.4,    7.1,   0.00,   0.00, 1003.5,   86.0, -999.0
24-12-2022, 00:08:12,    237,    1.1,    7.2,   0.00,   0.00, 1003.6,   85.9, -999.0
24-12-2022, 00:08:22,    233,    0.6,    7.2,   0.00,   0.00, 1003.5,   85.8, -999.0
24-12-2022, 00:08:31,    238,    0.7,    7.0,   0.00,   0.00, 1003.5,   85.6, -999.0
24-12-2022, 00:08:41,    188,    2.7,    7.2,   0.00,   0.00, 1003.6,   85.7, -999.0
24-12-2022, 00:08:52,    227,    1.5,    7.2,   0.00,   0.00, 1003.5,   85.7, -999.0
24-12-2022, 00:09:01,    154,    1.9,    7.2,   0.00,   0.00, 1003.5,   85.6, -999.0
24-12-2022, 00:09:11,    230,    0.9,    7.3,   0.00,   0.00, 1003.5,   85.6, -999.0
24-12-2022, 00:09:21,    242,    0.3,    7.2,   0.00,   0.00, 1003.5,   85.4, -999.0
24-12-2022, 00:09:31,    222,    1.2,    7.2,   0.00,   0.00, 1003.5,   85.4, -999.0
24-12-2022, 00:09:41,    242,    0.6,    7.3,   0.00,   0.00, 1003.5,   85.4, -999.0
24-12-2022, 00:09:51,    213,    0.6,    7.3,   0.00,   0.00, 1003.5,   85.3, -999.0
24-12-2022, 00:10:02,    198,    0.5,    7.3,   0.00,   0.00, 1003.5,   85.3, -999.0
24-12-2022, 00:10:11,    243,    1.2,    7.2,   0.00,   0.00, 1003.5,   85.2, -999.0
24-12-2022, 00:10:21,    199,    1.0,    7.2,   0.00,   0.00, 1003.6,   85.3, -999.0
24-12-2022, 00:10:31,    198,    0.5,    7.2,   0.00,   0.00, 1003.5,   85.3, -999.0
24-12-2022, 00:10:41,    198,    0.6,    7.2,   0.00,   0.00, 1003.5,   85.2, -999.0
24-12-2022, 00:10:51,    198,    0.0,    7.2,   0.00,   0.00, 1003.4,   85.0, -999.0
24-12-2022, 00:11:01,    198,    0.0,    7.1,   0.00,   0.00, 1003.4,   84.9, -999.0
24-12-2022, 00:11:11,    206,    0.7,    7.2,   0.00,   0.00, 1003.5,   85.1, -999.0
24-12-2022, 00:11:21,    200,    1.0,    7.3,   0.00,   0.00, 1003.5,   85.2, -999.0
24-12-2022, 00:11:31,    200,    0.3,    7.2,   0.00,   0.00, 1003.5,   85.0, -999.0
24-12-2022, 00:11:41,    197,    1.1,    7.2,   0.00,   0.00, 1003.5,   85.0, -999.0
24-12-2022, 00:11:51,    206,    0.6,    7.3,   0.00,   0.00, 1003.5,   85.1, -999.0
24-12-2022, 00:12:01,    200,    0.5,    7.2,   0.00,   0.00, 1003.5,   84.9, -999.0
24-12-2022, 00:12:11,    235,    1.5,    7.2,   0.00,   0.00, 1003.6,   85.1, -999.0
24-12-2022, 00:12:21,    241,    2.0,    7.3,   0.00,   0.00, 1003.5,   84.9, -999.0
24-12-2022, 00:12:31,    204,    0.9,    7.2,   0.00,   0.00, 1003.5,   84.8, -999.0
24-12-2022, 00:12:41,    225,    1.4,    7.3,   0.00,   0.00, 1003.5,   84.9, -999.0
24-12-2022, 00:12:51,    210,    2.0,    7.3,   0.00,   0.00, 1003.6,   84.8, -999.0
24-12-2022, 00:13:01,    208,    1.4,    7.3,   0.00,   0.00, 1003.6,   84.7, -999.0
24-12-2022, 00:13:11,    188,    1.2,    7.3,   0.00,   0.00, 1003.6,   84.6, -999.0
24-12-2022, 00:13:21,    200,    2.9,    7.3,   0.00,   0.00, 1003.6,   84.6, -999.0
24-12-2022, 00:13:31,    206,    1.7,    7.3,   0.00,   0.00, 1003.5,   84.5, -999.0
24-12-2022, 00:13:41,    248,    3.9,    7.3,   0.00,   0.00, 1003.6,   84.3, -999.0
24-12-2022, 00:13:51,    208,    2.2,    7.2,   0.00,   0.00, 1003.6,   84.2, -999.0
24-12-2022, 00:14:01,    224,    3.2,    7.2,   0.00,   0.00, 1003.6,   84.2, -999.0
24-12-2022, 00:14:11,    200,    3.6,    7.3,   0.00,   0.00, 1003.6,   84.0, -999.0
24-12-2022, 00:14:21,    204,    3.9,    7.3,   0.00,   0.00, 1003.6,   83.9, -999.0
24-12-2022, 00:14:31,    219,    2.7,    7.4,   0.00,   0.00, 1003.6,   83.8, -999.0
24-12-2022, 00:14:41,    201,    2.8,    7.3,   0.00,   0.00, 1003.6,   83.7, -999.0
24-12-2022, 00:14:51,    233,    0.7,    7.3,   0.00,   0.00, 1003.6,   83.8, -999.0
24-12-2022, 00:15:01,    232,    0.1,    7.3,   0.00,   0.00, 1003.5,   83.6, -999.0
24-12-2022, 00:15:11,    174,    0.4,    7.3,   0.00,   0.00, 1003.5,   83.7, -999.0
24-12-2022, 00:15:21,    215,    1.4,    7.3,   0.00,   0.00, 1003.6,   83.7, -999.0
24-12-2022, 00:15:31,    202,    2.7,    7.3,   0.00,   0.00, 1003.6,   83.7, -999.0
24-12-2022, 00:15:40,    222,    3.0,    7.3,   0.00,   0.00, 1003.6,   83.7, -999.0
24-12-2022, 00:15:51,    213,    1.3,    7.3,   0.00,   0.00, 1003.6,   83.7, -999.0
24-12-2022, 00:16:01,    213,    0.4,    7.3,   0.00,   0.00, 1003.6,   83.6, -999.0
24-12-2022, 00:16:10,    216,    0.1,    7.2,   0.00,   0.00, 1003.5,   83.6, -999.0
24-12-2022, 00:16:21,    198,    0.1,    7.3,   0.00,   0.00, 1003.6,   83.7, -999.0
24-12-2022, 00:16:31,    241,    0.7,    7.3,   0.00,   0.00, 1003.6,   83.7, -999.0
24-12-2022, 00:16:41,    226,    2.6,    7.3,   0.00,   0.00, 1003.6,   83.8, -999.0
24-12-2022, 00:16:50,    244,    1.3,    7.3,   0.00,   0.00, 1003.6,   83.8, -999.0
24-12-2022, 00:17:01,    209,    0.3,    7.1,   0.00,   0.00, 1003.6,   83.7, -999.0
24-12-2022, 00:17:11,    175,    0.5,    7.3,   0.00,   0.00, 1003.6,   83.8, -999.0
24-12-2022, 00:17:20,    254,    1.3,    7.2,   0.00,   0.00, 1003.6,   83.8, -999.0
24-12-2022, 00:17:30,    225,    2.1,    7.2,   0.00,   0.00, 1003.6,   83.9, -999.0
24-12-2022, 00:17:41,    222,    1.3,    7.2,   0.00,   0.00, 1003.6,   83.8, -999.0
24-12-2022, 00:17:50,    213,    2.2,    7.2,   0.00,   0.00, 1003.6,   83.9, -999.0
24-12-2022, 00:18:00,    211,    2.0,    7.3,   0.00,   0.00, 1003.7,   83.9, -999.0
24-12-2022, 00:18:10,    211,    0.4,    7.3,   0.00,   0.00, 1003.7,   83.9, -999.0
24-12-2022, 00:18:21,    208,    0.1,    7.2,   0.00,   0.00, 1003.6,   83.8, -999.0
24-12-2022, 00:18:30,    221,    2.2,    7.2,   0.00,   0.00, 1003.6,   83.9, -999.0
24-12-2022, 00:18:40,    192,    1.5,    7.1,   0.00,   0.00, 1003.6,   83.9, -999.0
24-12-2022, 00:18:50,    207,    1.8,    7.2,   0.00,   0.00, 1003.7,   83.9, -999.0
24-12-2022, 00:19:00,    215,    2.3,    7.3,   0.00,   0.00, 1003.6,   84.0, -999.0
24-12-2022, 00:19:10,    229,    4.3,    7.2,   0.00,   0.00, 1003.6,   84.1, -999.0
24-12-2022, 00:19:20,    245,    3.7,    7.2,   0.00,   0.00, 1003.6,   84.1, -999.0
24-12-2022, 00:19:30,    255,    2.5,    7.2,   0.00,   0.00, 1003.6,   84.0, -999.0
24-12-2022, 00:19:40,    222,    0.9,    7.2,   0.00,   0.00, 1003.6,   83.8, -999.0
24-12-2022, 00:19:50,    223,    0.8,    7.2,   0.00,   0.00, 1003.6,   83.9, -999.0
24-12-2022, 00:20:00,    211,    0.4,    7.2,   0.00,   0.00, 1003.6,   83.7, -999.0
24-12-2022, 00:20:10,    201,    0.7,    7.2,   0.00,   0.00, 1003.5,   83.7, -999.0
24-12-2022, 00:20:20,    232,    1.4,    7.2,   0.00,   0.00, 1003.6,   83.8, -999.0
24-12-2022, 00:20:30,    254,    2.0,    7.2,   0.00,   0.00, 1003.6,   83.8, -999.0
24-12-2022, 00:20:40,    207,    1.8,    7.1,   0.00,   0.00, 1003.6,   83.9, -999.0
24-12-2022, 00:20:50,    221,    1.2,    7.2,   0.00,   0.00, 1003.6,   83.8, -999.0
24-12-2022, 00:21:00,    212,    2.8,    7.2,   0.00,   0.00, 1003.6,   83.8, -999.0
24-12-2022, 00:21:10,    214,    1.2,    7.2,   0.00,   0.00, 1003.6,   83.8, -999.0
24-12-2022, 00:21:20,    237,    1.2,    7.2,   0.00,   0.00, 1003.6,   83.8, -999.0
24-12-2022, 00:21:30,    220,    3.6,    7.2,   0.00,   0.00, 1003.6,   83.8, -999.0
24-12-2022, 00:21:40,    215,    3.2,    7.2,   0.00,   0.00, 1003.6,   83.8, -999.0
24-12-2022, 00:21:50,    224,    2.4,    7.2,   0.00,   0.00, 1003.5,   83.8, -999.0
24-12-2022, 00:22:00,    227,    1.1,    7.2,   0.00,   0.00, 1003.6,   83.8, -999.0
24-12-2022, 00:22:10,    229,    0.9,    7.3,   0.00,   0.00, 1003.6,   83.8, -999.0
24-12-2022, 00:22:20,    228,    0.8,    7.2,   0.00,   0.00, 1003.5,   83.7, -999.0
24-12-2022, 00:22:30,    217,    0.3,    7.2,   0.00,   0.00, 1003.5,   83.5, -999.0
24-12-2022, 00:22:40,    189,    0.9,    7.2,   0.00,   0.00, 1003.6,   83.8, -999.0
24-12-2022, 00:22:50,    161,    1.6,    7.2,   0.00,   0.00, 1003.6,   83.8, -999.0
24-12-2022, 00:23:00,    210,    0.9,    7.2,   0.00,   0.00, 1003.6,   83.9, -999.0
24-12-2022, 00:23:10,    211,    0.9,    7.2,   0.00,   0.00, 1003.5,   83.9, -999.0
24-12-2022, 00:23:20,    211,    0.3,    7.1,   0.00,   0.00, 1003.5,   83.6, -999.0
24-12-2022, 00:23:30,    236,    0.8,    7.1,   0.00,   0.00, 1003.5,   83.8, -999.0
24-12-2022, 00:23:40,    232,    0.6,    7.2,   0.00,   0.00, 1003.5,   83.8, -999.0
24-12-2022, 00:23:50,    220,    3.2,    7.2,   0.00,   0.00, 1003.6,   83.9, -999.0
24-12-2022, 00:24:00,    251,    2.0,    7.2,   0.00,   0.00, 1003.5,   83.9, -999.0
24-12-2022, 00:24:10,    249,    0.3,    7.2,   0.00,   0.00, 1003.5,   83.9, -999.0
24-12-2022, 00:24:20,    200,    1.0,    7.1,   0.00,   0.00, 1003.6,   83.8, -999.0
24-12-2022, 00:24:29,    200,    1.2,    7.2,   0.00,   0.00, 1003.6,   84.0, -999.0
24-12-2022, 00:24:40,    204,    0.1,    7.1,   0.00,   0.00, 1003.5,   83.8, -999.0
24-12-2022, 00:24:50,    263,    0.1,    7.1,   0.00,   0.00, 1003.5,   83.9, -999.0
24-12-2022, 00:25:00,    173,    0.1,    7.0,   0.00,   0.00, 1003.5,   83.8, -999.0
24-12-2022, 00:25:09,    214,    0.8,    7.1,   0.00,   0.00, 1003.5,   83.9, -999.0
24-12-2022, 00:25:20,    174,    1.3,    7.2,   0.00,   0.00, 1003.6,   84.0, -999.0
24-12-2022, 00:25:30,    257,    0.4,    7.1,   0.00,   0.00, 1003.5,   83.7, -999.0
24-12-2022, 00:25:39,    211,    1.2,    7.1,   0.00,   0.00, 1003.6,   83.9, -999.0
24-12-2022, 00:25:49,    210,    0.2,    7.1,   0.00,   0.00, 1003.5,   83.7, -999.0
24-12-2022, 00:26:00,    208,    0.8,    7.1,   0.00,   0.00, 1003.5,   83.8, -999.0
24-12-2022, 00:26:09,    212,    0.7,    7.2,   0.00,   0.00, 1003.5,   83.9, -999.0
24-12-2022, 00:26:19,    220,    3.0,    7.1,   0.00,   0.00, 1003.6,   84.0, -999.0
24-12-2022, 00:26:29,    232,    1.7,    7.2,   0.00,   0.00, 1003.6,   83.9, -999.0
24-12-2022, 00:26:40,    231,    0.2,    7.1,   0.00,   0.00, 1003.5,   83.7, -999.0
24-12-2022, 00:26:49,    201,    0.1,    7.1,   0.00,   0.00, 1003.6,   83.7, -999.0
24-12-2022, 00:26:59,    236,    0.8,    7.2,   0.00,   0.00, 1003.6,   83.9, -999.0
24-12-2022, 00:27:10,    217,    2.1,    7.2,   0.00,   0.00, 1003.6,   83.9, -999.0
24-12-2022, 00:27:19,    210,    0.5,    7.2,   0.00,   0.00, 1003.6,   83.8, -999.0
24-12-2022, 00:27:29,    225,    0.4,    7.0,   0.00,   0.00, 1003.6,   83.6, -999.0
24-12-2022, 00:27:39,    256,    0.4,    7.1,   0.00,   0.00, 1003.6,   83.8, -999.0
24-12-2022, 00:27:49,    217,    2.2,    7.2,   0.00,   0.00, 1003.6,   83.9, -999.0
24-12-2022, 00:27:59,    223,    0.9,    7.2,   0.00,   0.00, 1003.6,   83.8, -999.0
24-12-2022, 00:28:09,    279,    0.9,    7.2,   0.00,   0.00, 1003.6,   83.9, -999.0
24-12-2022, 00:28:19,    236,    0.7,    7.1,   0.00,   0.00, 1003.6,   83.9, -999.0
24-12-2022, 00:28:29,    139,    1.8,    7.1,   0.00,   0.00, 1003.6,   84.0, -999.0
24-12-2022, 00:28:39,    219,    2.4,    7.1,   0.00,   0.00, 1003.6,   84.0, -999.0
24-12-2022, 00:28:49,    204,    2.2,    7.1,   0.00,   0.00, 1003.6,   83.9, -999.0
24-12-2022, 00:28:59,    236,    1.5,    7.1,   0.00,   0.00, 1003.6,   84.0, -999.0
24-12-2022, 00:29:09,    191,    0.9,    7.1,   0.00,   0.00, 1003.6,   83.9, -999.0
24-12-2022, 00:29:19,    209,    2.3,    7.2,   0.00,   0.00, 1003.6,   83.9, -999.0
24-12-2022, 00:29:29,    205,    3.0,    7.1,   0.00,   0.00, 1003.6,   83.9, -999.0
24-12-2022, 00:29:39,    213,    2.6,    7.1,   0.00,   0.00, 1003.7,   83.8, -999.0
24-12-2022, 00:29:49,    189,    1.4,    7.2,   0.00,   0.00, 1003.7,   83.9, -999.0
24-12-2022, 00:29:59,    222,    1.4,    7.2,   0.00,   0.00, 1003.6,   83.8, -999.0
24-12-2022, 00:30:09,    218,    1.4,    7.2,   0.00,   0.00, 1003.6,   83.9, -999.0
24-12-2022, 00:30:19,    216,    2.8,    7.2,   0.00,   0.00, 1003.7,   83.9, -999.0
24-12-2022, 00:30:29,    242,    2.5,    7.2,   0.00,   0.00, 1003.6,   83.8, -999.0
24-12-2022, 00:30:39,    217,    3.2,    7.1,   0.00,   0.00, 1003.6,   83.8, -999.0
24-12-2022, 00:30:49,    202,    2.1,    7.2,   0.00,   0.00, 1003.6,   83.8, -999.0
24-12-2022, 00:30:59,    245,    0.8,    7.2,   0.00,   0.00, 1003.6,   83.7, -999.0
24-12-2022, 00:31:09,    240,    1.4,    7.2,   0.00,   0.00, 1003.6,   83.7, -999.0
24-12-2022, 00:31:19,    197,    0.8,    7.1,   0.00,   0.00, 1003.6,   83.6, -999.0
24-12-2022, 00:31:29,    199,    0.6,    7.2,   0.00,   0.00, 1003.6,   83.7, -999.0
24-12-2022, 00:31:39,    201,    0.1,    7.2,   0.00,   0.00, 1003.6,   83.5, -999.0
24-12-2022, 00:31:49,    201,    0.0,    7.0,   0.00,   0.00, 1003.6,   83.5, -999.0
24-12-2022, 00:31:59,    200,    0.0,    7.1,   0.00,   0.00, 1003.5,   83.4, -999.0
24-12-2022, 00:32:09,    200,    0.0,    7.1,   0.00,   0.00, 1003.6,   83.4, -999.0
24-12-2022, 00:32:19,    202,    0.2,    7.1,   0.00,   0.00, 1003.6,   83.6, -999.0
24-12-2022, 00:32:29,    203,    0.0,    7.1,   0.00,   0.00, 1003.5,   83.6, -999.0
24-12-2022, 00:32:39,    203,    0.0,    7.1,   0.00,   0.00, 1003.5,   83.7, -999.0
24-12-2022, 00:32:49,    207,    0.3,    7.1,   0.00,   0.00, 1003.6,   83.8, -999.0
24-12-2022, 00:32:59,    210,    0.0,    7.1,   0.00,   0.00, 1003.6,   83.7, -999.0
24-12-2022, 00:33:09,    231,    0.6,    7.1,   0.00,   0.00, 1003.6,   83.9, -999.0
24-12-2022, 00:33:19,    185,    0.6,    7.2,   0.00,   0.00, 1003.6,   84.0, -999.0
24-12-2022, 00:33:29,    214,    0.4,    7.1,   0.00,   0.00, 1003.7,   84.0, -999.0
24-12-2022, 00:33:39,    212,    1.2,    7.2,   0.00,   0.00, 1003.6,   83.8, -999.0
24-12-2022, 00:33:49,    212,    0.1,    7.0,   0.00,   0.00, 1003.6,   83.7, -999.0
24-12-2022, 00:33:58,    214,    1.2,    7.2,   0.00,   0.00, 1003.6,   83.9, -999.0
24-12-2022, 00:34:09,    214,    0.3,    7.1,   0.00,   0.00, 1003.6,   83.8, -999.0
24-12-2022, 00:34:19,    214,    0.0,    7.0,   0.00,   0.00, 1003.6,   83.6, -999.0
24-12-2022, 00:34:28,    219,    0.9,    7.1,   0.00,   0.00, 1003.7,   83.8, -999.0
24-12-2022, 00:34:38,    219,    0.0,    7.2,   0.00,   0.00, 1003.6,   83.6, -999.0
24-12-2022, 00:34:49,    245,    0.9,    7.1,   0.00,   0.00, 1003.6,   83.8, -999.0
24-12-2022, 00:34:59,    186,    0.6,    7.1,   0.00,   0.00, 1003.6,   83.6, -999.0
24-12-2022, 00:35:08,    185,    0.8,    7.1,   0.00,   0.00, 1003.6,   83.8, -999.0
24-12-2022, 00:35:18,    229,    0.8,    7.1,   0.00,   0.00, 1003.6,   83.8, -999.0
24-12-2022, 00:35:29,    221,    0.8,    7.2,   0.00,   0.00, 1003.7,   83.8, -999.0
24-12-2022, 00:35:38,    234,    1.2,    7.1,   0.00,   0.00, 1003.6,   83.7, -999.0
24-12-2022, 00:35:48,    234,    1.0,    7.2,   0.00,   0.00, 1003.6,   83.8, -999.0
24-12-2022, 00:35:59,    212,    0.5,    7.1,   0.00,   0.00, 1003.7,   83.8, -999.0
24-12-2022, 00:36:08,    212,    0.0,    7.0,   0.00,   0.00, 1003.6,   83.5, -999.0
24-12-2022, 00:36:18,    227,    2.3,    7.1,   0.00,   0.00, 1003.7,   83.8, -999.0
24-12-2022, 00:36:28,    202,    2.0,    7.2,   0.00,   0.00, 1003.7,   83.8, -999.0
24-12-2022, 00:36:38,    173,    1.8,    7.1,   0.00,   0.00, 1003.7,   83.8, -999.0
24-12-2022, 00:36:48,    196,    0.6,    7.1,   0.00,   0.00, 1003.6,   83.6, -999.0
24-12-2022, 00:36:58,    291,    0.7,    7.1,   0.00,   0.00, 1003.7,   83.7, -999.0
24-12-2022, 00:37:08,    197,    0.7,    7.2,   0.00,   0.00, 1003.7,   83.8, -999.0
24-12-2022, 00:37:18,    197,    0.3,    7.1,   0.00,   0.00, 1003.6,   83.7, -999.0
24-12-2022, 00:37:28,    196,    0.3,    7.0,   0.00,   0.00, 1003.6,   83.6, -999.0
24-12-2022, 00:37:38,    237,    0.8,    7.0,   0.00,   0.00, 1003.7,   83.9, -999.0
24-12-2022, 00:37:48,    207,    2.6,    7.2,   0.00,   0.00, 1003.7,   83.8, -999.0
24-12-2022, 00:37:58,    244,    2.9,    7.1,   0.00,   0.00, 1003.7,   83.8, -999.0
24-12-2022, 00:38:08,    229,    2.0,    7.2,   0.00,   0.00, 1003.7,   83.7, -999.0
24-12-2022, 00:38:18,    224,    0.2,    7.1,   0.00,   0.00, 1003.6,   83.5, -999.0
24-12-2022, 00:38:28,    203,    0.1,    7.1,   0.00,   0.00, 1003.6,   83.5, -999.0
24-12-2022, 00:38:38,    237,    1.1,    7.1,   0.00,   0.00, 1003.7,   83.7, -999.0
24-12-2022, 00:38:48,    203,    0.5,    7.2,   0.00,   0.00, 1003.7,   83.6, -999.0
24-12-2022, 00:38:58,    205,    0.7,    7.0,   0.00,   0.00, 1003.7,   83.6, -999.0
24-12-2022, 00:39:08,    202,    1.0,    7.1,   0.00,   0.00, 1003.7,   83.6, -999.0
24-12-2022, 00:39:18,    206,    2.1,    7.1,   0.00,   0.00, 1003.7,   83.6, -999.0
24-12-2022, 00:39:28,    215,    3.4,    7.1,   0.00,   0.00, 1003.7,   83.5, -999.0
24-12-2022, 00:39:38,    190,    2.0,    7.2,   0.00,   0.00, 1003.7,   83.5, -999.0
24-12-2022, 00:39:48,    220,    1.6,    7.1,   0.00,   0.00, 1003.7,   83.5, -999.0
24-12-2022, 00:39:58,    206,    1.5,    7.2,   0.00,   0.00, 1003.7,   83.4, -999.0
24-12-2022, 00:40:08,    207,    0.5,    7.1,   0.00,   0.00, 1003.7,   83.4, -999.0
24-12-2022, 00:40:18,    207,    0.3,    7.1,   0.00,   0.00, 1003.6,   83.5, -999.0
24-12-2022, 00:40:28,    207,    0.0,    7.0,   0.00,   0.00, 1003.6,   83.3, -999.0
24-12-2022, 00:40:38,    210,    0.9,    7.0,   0.00,   0.00, 1003.6,   83.5, -999.0
24-12-2022, 00:40:48,    210,    0.3,    7.0,   0.00,   0.00, 1003.7,   83.5, -999.0
24-12-2022, 00:40:58,    212,    0.5,    7.0,   0.00,   0.00, 1003.6,   83.4, -999.0
24-12-2022, 00:41:08,    216,    0.8,    7.1,   0.00,   0.00, 1003.7,   83.7, -999.0
24-12-2022, 00:41:18,    211,    0.4,    7.1,   0.00,   0.00, 1003.7,   83.7, -999.0
24-12-2022, 00:41:28,    216,    0.5,    7.1,   0.00,   0.00, 1003.7,   83.7, -999.0
24-12-2022, 00:41:38,    201,    1.0,    7.1,   0.00,   0.00, 1003.7,   83.8, -999.0
24-12-2022, 00:41:48,    211,    2.6,    7.0,   0.00,   0.00, 1003.7,   83.8, -999.0
24-12-2022, 00:41:58,    204,    2.7,    7.1,   0.00,   0.00, 1003.7,   83.9, -999.0
24-12-2022, 00:42:08,    219,    1.8,    7.1,   0.00,   0.00, 1003.7,   83.9, -999.0
24-12-2022, 00:42:17,    219,    0.4,    7.0,   0.00,   0.00, 1003.6,   83.6, -999.0
24-12-2022, 00:42:28,    211,    1.4,    7.0,   0.00,   0.00, 1003.6,   83.8, -999.0
24-12-2022, 00:42:38,    206,    1.2,    7.1,   0.00,   0.00, 1003.6,   83.8, -999.0
24-12-2022, 00:42:47,    204,    0.7,    7.0,   0.00,   0.00, 1003.7,   83.8, -999.0
24-12-2022, 00:42:57,    204,    0.1,    7.0,   0.00,   0.00, 1003.6,   83.8, -999.0
24-12-2022, 00:43:08,    204,    0.0,    7.0,   0.00,   0.00, 1003.5,   83.6, -999.0
24-12-2022, 00:43:18,    204,    0.0,    7.0,   0.00,   0.00, 1003.6,   83.7, -999.0
24-12-2022, 00:43:27,    202,    1.0,    7.0,   0.00,   0.00, 1003.7,   84.1, -999.0
24-12-2022, 00:43:38,    199,    0.0,    7.0,   0.00,   0.00, 1003.6,   83.7, -999.0
24-12-2022, 00:43:48,    199,    0.0,    6.8,   0.00,   0.00, 1003.6,   83.6, -999.0
24-12-2022, 00:43:57,    203,    0.3,    6.8,   0.00,   0.00, 1003.7,   84.0, -999.0
24-12-2022, 00:44:07,    202,    0.4,    7.0,   0.00,   0.00, 1003.7,   84.3, -999.0
24-12-2022, 00:44:18,    202,    0.5,    7.0,   0.00,   0.00, 1003.7,   84.2, -999.0
24-12-2022, 00:44:27,    213,    0.7,    7.0,   0.00,   0.00, 1003.6,   84.4, -999.0
24-12-2022, 00:44:37,    212,    0.2,    6.9,   0.00,   0.00, 1003.6,   84.0, -999.0
24-12-2022, 00:44:47,    212,    0.9,    7.0,   0.00,   0.00, 1003.7,   84.2, -999.0
24-12-2022, 00:44:58,    211,    0.5,    7.0,   0.00,   0.00, 1003.7,   84.3, -999.0
24-12-2022, 00:45:07,    193,    1.0,    7.0,   0.00,   0.00, 1003.7,   84.4, -999.0
24-12-2022, 00:45:17,    197,    0.3,    6.8,   0.00,   0.00, 1003.7,   84.2, -999.0
24-12-2022, 00:45:27,    196,    0.1,    6.7,   0.00,   0.00, 1003.6,   84.1, -999.0
24-12-2022, 00:45:37,    229,    1.7,    6.9,   0.00,   0.00, 1003.7,   84.5, -999.0
24-12-2022, 00:45:47,    211,    0.7,    6.9,   0.00,   0.00, 1003.7,   84.6, -999.0
24-12-2022, 00:45:57,    214,    0.3,    6.9,   0.00,   0.00, 1003.7,   84.6, -999.0
24-12-2022, 00:46:07,    201,    0.6,    6.8,   0.00,   0.00, 1003.6,   84.4, -999.0
24-12-2022, 00:46:17,    212,    2.4,    6.9,   0.00,   0.00, 1003.7,   84.8, -999.0
24-12-2022, 00:46:27,    212,    1.6,    6.9,   0.00,   0.00, 1003.7,   84.7, -999.0
24-12-2022, 00:46:37,    211,    0.7,    6.9,   0.00,   0.00, 1003.7,   84.7, -999.0
24-12-2022, 00:46:47,    212,    0.0,    6.9,   0.00,   0.00, 1003.6,   84.2, -999.0